sat.trackr.live / text

‹ back to catalog

STARLINK-2161

NORAD 47747 · 2021-017AB

PAYLOAD ACTIVE UNKNOWN

§ Identity

Operator
Country
US
Launch date
2021-03-04
Launch site
AFETR
Launch vehicle
Mass (kg)
RCS (m²)

Purposes: comms

External: N2YO · Heavens-Above · Gunter

§ Orbital elements

Epoch: 2026-09-19T15:18:19.714752Z

Period
94.01 min
Inclination
53.1612°
Eccentricity
0.0001212
Mean motion
15.31710762 rev/d
Perigee alt
469.9 km
Apogee alt
471.5 km
Semi-major
6,848.8 km
B*
1.3285e-4
RAAN
11.2987°
Arg perigee
83.8083°
Mean anomaly
276.3056°
Rev number
30,773

§ Raw data

STARLINK-21611 47747U 21017AB  26262.63772818  .00003761  00000+0  13285-3 0  99982 47747  53.1612  11.2987 0001212  83.8083 276.3056 15.31710762307735

JSON: /api/v1/satellites/47747 · /tle

For live sub-satellite position, see the globe view (requires WebGL).

§ Visibility from observer

Set your observer location to see the next 7 days of passes ≥ 10°. The values pass through the URL so the page stays shareable.

No JS? Fill the form by hand. The geolocation button needs JavaScript.